Rochester, NY

7:15 PM EDT on July 24, 2017 (GMT -0400)
Greater Rochester International

Weather History for KROC - January, 2014

Change the Weather History Date:

Monday, January 27, 2014

  Actual Average Record
Temperature  
Mean Temperature 20 °F 24 °F  
Max Temperature 35 °F 32 °F 63 °F (1916)
Min Temperature 5 °F 17 °F -7 °F (1927)
Degree Days  
Heating Degree Days 45 41  
Month to date heating degree days 1174 1090  
Since 1 July heating degree days 3671 3543  
Cooling Degree Days 0 0  
Month to date cooling degree days 0 0  
Year to date cooling degree days 0 0  
Moisture  
Dew Point 9 °F    
Average Humidity 69    
Maximum Humidity 92    
Minimum Humidity 46    
Precipitation  
Precipitation 0.07 in 0.07 in 0.80 in (1876)
Month to date precipitation 1.23 2.13  
Year to date precipitation 1.23 2.13  
Snow  
Snow 1.90 in 0.90 in 9.10 in (1963)
Month to date snowfall 20.8 24.7  
Since 1 July snowfall 56.8 53.9  
Snow Depth 4.00 in    
Sea Level Pressure  
Sea Level Pressure 29.74 in    
Wind  
Wind Speed 17 mph (WSW)    
Max Wind Speed 32 mph    
Max Gust Speed 43 mph    
Visibility 6 miles    
Events Fog , Snow    
T = Trace of Precipitation, MM = Missing Value Source: NWS Daily Summary

Daily Weather History Graph

Daily Weather History Graph

Search for Another Location

Airport or City:

Trip Planner

Search our weather history database for the weather conditions in past years. The results will help you decide how hot, cold, wet, or windy it might be!

Date:

Astronomy

Jan. 27, 2014 Rise Set
Actual Time 7:30 AM EST 5:16 PM EST
Civil Twilight 7:00 AM EST 5:47 PM EST
Nautical Twilight 6:26 AM EST 6:21 PM EST
Astronomical Twilight 5:52 AM EST 6:54 PM EST
Moon 4:11 AM EST (1/27) 1:59 PM EST (1/27)
Length of Visible Light 10h 46m
Length of Day
9h 45m
Waning Crescent, 15% of the Moon is Illuminated
Jan 27
Waning Crescent
Jan 30
New
Feb 6
First Quarter
Feb 14
Full
Feb 22
Last Quarter

Hourly Weather History & Observations

Time (EST) Temp. Windchill Dew Point Humidity Pressure Visibility Wind Dir Wind Speed Gust Speed Precip Events Conditions
12:08 AM 26.6 °F 19.1 °F 19.4 °F 74% 29.43 in 10.0 mi SSW 6.9 mph - N/A   Scattered Clouds
12:54 AM 30.0 °F 21.7 °F 21.0 °F 69% 29.44 in 10.0 mi SSW 9.2 mph - N/A   Overcast
1:54 AM 30.9 °F 22.2 °F 21.0 °F 67% 29.40 in 10.0 mi SSW 10.4 mph - N/A   Overcast
2:54 AM 33.1 °F 24.9 °F 21.9 °F 64% 29.34 in 10.0 mi South 10.4 mph 18.4 mph N/A   Overcast
3:54 AM 35.1 °F 27.4 °F 23.0 °F 61% 29.29 in 10.0 mi SSW 10.4 mph - 0.00 in Snow Light Snow
4:43 AM 30.2 °F 17.4 °F 23.0 °F 75% 29.30 in 4.0 mi NW 20.7 mph 32.2 mph 0.00 in Snow Light Snow
4:48 AM 28.4 °F 14.7 °F 24.8 °F 86% 29.32 in 1.0 mi WNW 21.9 mph 32.2 mph 0.00 in Snow Light Snow
4:54 AM 28.9 °F 17.7 °F 25.0 °F 85% 29.36 in 0.5 mi WNW 15.0 mph 27.6 mph 0.00 in Snow Snow
5:03 AM 28.4 °F 17.5 °F 26.6 °F 93% 29.32 in 0.8 mi West 13.8 mph 20.7 mph 0.02 in Snow Light Snow
5:14 AM 28.4 °F 17.0 °F 26.6 °F 93% 29.33 in 0.5 mi West 15.0 mph 23.0 mph 0.02 in Fog , Snow Snow
5:42 AM 28.4 °F 13.8 °F 24.8 °F 86% 29.38 in 0.1 mi NW 25.3 mph 34.5 mph 0.02 in Snow Heavy Snow
5:54 AM 25.0 °F 11.7 °F 23.0 °F 92% 29.42 in 0.2 mi WNW 17.3 mph 25.3 mph 0.03 in Snow Heavy Snow
6:39 AM 21.2 °F 6.0 °F 17.6 °F 86% 29.49 in 1.0 mi West 19.6 mph 36.8 mph 0.01 in Snow Light Snow
6:54 AM 21.0 °F 8.1 °F 16.0 °F 81% 29.56 in 1.5 mi West 13.8 mph 32.2 mph 0.01 in Snow Light Snow
7:19 AM 19.4 °F 2.8 °F 12.2 °F 74% 29.56 in 2.0 mi West 21.9 mph 34.5 mph 0.00 in Snow Light Snow
7:54 AM 19.0 °F 4.5 °F 7.0 °F 59% 29.65 in 5.0 mi West 16.1 mph 31.1 mph 0.00 in Snow Blowing Snow
8:54 AM 16.0 °F -2.8 °F 1.9 °F 54% 29.73 in 3.0 mi West 25.3 mph 38.0 mph 0.00 in Snow Blowing Snow
9:54 AM 15.1 °F -2.0 °F 3.0 °F 59% 29.79 in 3.0 mi West 19.6 mph 40.3 mph N/A Snow Blowing Snow
10:54 AM 16.0 °F -1.7 °F 3.9 °F 59% 29.84 in 6.0 mi WSW 21.9 mph 33.4 mph 0.00 in Snow Blowing Snow
11:54 AM 17.1 °F -1.0 °F 3.9 °F 56% 29.86 in 3.0 mi West 24.2 mph 33.4 mph N/A Snow Blowing Snow
12:54 PM 18.0 °F -0.5 °F 3.0 °F 52% 29.88 in 8.0 mi West 26.5 mph 36.8 mph N/A   Mostly Cloudy
1:54 PM 17.1 °F -0.3 °F 1.0 °F 50% 29.90 in 9.0 mi West 21.9 mph 34.5 mph 0.00 in   Mostly Cloudy
2:54 PM 17.1 °F -1.4 °F -0.9 °F 45% 29.94 in 10.0 mi West 25.3 mph 33.4 mph N/A   Mostly Cloudy
3:54 PM 15.8 °F -0.2 °F -2.2 °F 45% 29.96 in 10.0 mi West 17.3 mph 25.3 mph N/A   Scattered Clouds
4:19 PM 12.2 °F -3.1 °F 3.2 °F 67% 29.94 in 1.8 mi WSW 13.8 mph 32.2 mph 0.00 in Snow Light Snow
4:26 PM 12.2 °F -5.8 °F 5.0 °F 73% 29.94 in 3.0 mi WSW 19.6 mph 24.2 mph 0.00 in Snow Light Snow
4:54 PM 12.0 °F -3.4 °F 3.9 °F 70% 30.00 in 8.0 mi West 13.8 mph 23.0 mph 0.00 in Snow Light Snow
5:41 PM 10.4 °F -7.2 °F 3.2 °F 73% 29.97 in 9.0 mi WSW 17.3 mph - 0.00 in   Mostly Cloudy
5:54 PM 10.9 °F -5.4 °F 3.9 °F 73% 30.03 in 2.0 mi WSW 15.0 mph - 0.00 in Snow Light Snow
6:02 PM 10.4 °F -6.6 °F 3.2 °F 73% 29.99 in 2.0 mi WSW 16.1 mph - 0.00 in Snow Light Snow
6:08 PM 10.4 °F -5.4 °F 3.2 °F 73% 29.99 in 4.0 mi WSW 13.8 mph - 0.00 in Snow Light Snow
6:33 PM 10.4 °F -4.8 °F 1.4 °F 67% 30.01 in 7.0 mi West 12.7 mph 23.0 mph 0.00 in   Mostly Cloudy
6:54 PM 10.0 °F -9.5 °F -2.0 °F 58% 30.06 in 10.0 mi WSW 21.9 mph 28.8 mph 0.00 in   Partly Cloudy
7:54 PM 8.1 °F -7.0 °F -7.1 °F 50% 30.08 in 10.0 mi West 11.5 mph - N/A   Clear
8:54 PM 6.1 °F -8.7 °F -7.1 °F 55% 30.11 in 10.0 mi WSW 10.4 mph - N/A   Partly Cloudy
9:54 PM 7.0 °F -11.0 °F -8.0 °F 51% 30.12 in 10.0 mi WSW 16.1 mph 23.0 mph N/A   Mostly Cloudy
10:54 PM 6.1 °F -11.6 °F -9.0 °F 50% 30.14 in 10.0 mi West 15.0 mph - N/A   Mostly Cloudy
11:54 PM 5.0 °F -13.0 °F -9.0 °F 52% 30.16 in 10.0 mi West 15.0 mph 21.9 mph N/A   Mostly Cloudy